Location: Utrecht
(52.0907°N, 5.1214°E)
Time: 06:49:40
(UTC+02:00)

CAS-6 - Visible Passes

Search period start: 26 June 2022 00:00
Search period end: 06 July 2022 00:00
Orbit: 613 x 635 km, 97.9° (Epoch: 25 June)

Date Brightness Start Highest point End Pass type
(mag) Time Alt. Az. Time Alt. Az. Time Alt. Az.
26 Jun ? 01:02:00 10° SW 01:05:03 18° W 01:08:07 10° NW visible
26 Jun ? 23:43:01 13° SSE 23:46:53 90° W 23:51:16 10° NNW visible
27 Jun ? 01:21:49 10° WSW 01:23:43 13° W 01:25:37 10° WNW visible
28 Jun ? 00:01:40 14° S 00:05:20 61° WSW 00:09:40 10° NNW visible
29 Jun ? 00:20:19 14° SSW 00:23:50 41° W 00:27:59 10° NNW visible
29 Jun ? 23:02:02 10° SE 23:06:05 39° ENE 23:10:09 10° N visible
30 Jun ? 00:38:58 12° SSW 00:42:23 28° W 00:46:10 10° NW visible
30 Jun ? 23:20:22 11° SSE 23:24:26 57° ENE 23:28:43 10° N visible
01 Jul ? 00:57:47 10° SW 01:00:58 20° W 01:04:11 10° NW visible
01 Jul ? 23:39:01 13° SSE 23:42:50 84° ENE 23:47:12 10° NNW visible
02 Jul ? 01:17:25 10° WSW 01:19:38 14° W 01:21:50 10° WNW visible
02 Jul ? 23:57:40 15° S 00:01:17 67° WSW 00:05:37 10° NNW visible
04 Jul ? 00:16:18 14° SSW 00:19:46 44° W 00:23:57 10° NNW visible
04 Jul ? 22:58:05 10° SE 23:02:03 36° ENE 23:06:02 10° N visible
05 Jul ? 00:34:57 13° SSW 00:38:18 30° W 00:42:09 10° NNW visible
05 Jul ? 23:16:22 11° SE 23:20:23 52° ENE 23:24:37 10° N visible
